This is the latest recevied weather packets stored in our database for station/object F4ETJ-1. If no packets are shown the sender has not sent any weather packets the latest 10 day(s).
| Time | Temp. | Humidity | Pressure | Rain* | Wind** | Luminosity | Snow |
|---|---|---|---|---|---|---|---|
| 1777504656 | 15.56° C | 90% | 1009.7 hPa | 0 mm | - | - | - |
| 1777504296 | 15° C | 90% | 1009.8 hPa | 0 mm | - | - | - |
| 1777503935 | 15° C | 90% | 1009.6 hPa | 0 mm | - | - | - |
| 1777503575 | 15° C | 89% | 1009.6 hPa | 0 mm | - | - | - |
| 1777503215 | 15° C | 89% | 1009.6 hPa | 0 mm | - | - | - |
| 1777502854 | 15° C | 88% | 1009.6 hPa | 0 mm | - | - | - |
| 1777502494 | 15.56° C | 88% | 1009.6 hPa | 0 mm | - | - | - |
| 1777502134 | 15.56° C | 87% | 1009.6 hPa | 0 mm | - | - | - |
| 1777501773 | 15.56° C | 86% | 1009.5 hPa | 0 mm | - | - | - |
| 1777501413 | 16.11° C | 84% | 1009.5 hPa | 0 mm | - | - | - |
| 1777501053 | 16.11° C | 84% | 1009.6 hPa | 0 mm | - | - | - |
| 1777500692 | 16.67° C | 84% | 1009.5 hPa | 0 mm | - | - | - |
| 1777500334 | 16.67° C | 82% | 1009.5 hPa | 0 mm | - | - | - |
| 1777499972 | 17.22° C | 82% | 1009.5 hPa | 0 mm | - | - | - |
| 1777499611 | 17.22° C | 81% | 1009.4 hPa | 0 mm | - | - | - |
| 1777499251 | 17.78° C | 82% | 1009.4 hPa | 0 mm | - | - | - |
| 1777498891 | 17.22° C | 82% | 1009.4 hPa | 0 mm | - | - | - |
| 1777498530 | 17.22° C | 83% | 1009.2 hPa | 0 mm | - | - | - |
| 1777498170 | 17.22° C | 83% | 1009.3 hPa | 0 mm | - | - | - |
| 1777497810 | 17.22° C | 83% | 1009.2 hPa | 0 mm | - | - | - |
| 1777497449 | 17.22° C | 82% | 1009.2 hPa | 0 mm | - | - | - |
| 1777497089 | 17.78° C | 81% | 1009.3 hPa | 0 mm | - | - | - |
| 1777496729 | 17.78° C | 80% | 1009.3 hPa | 0 mm | - | - | - |
| 1777496368 | 17.78° C | 81% | 1009.3 hPa | 0 mm | - | - | - |
| 1777496008 | 17.78° C | 82% | 1009.3 hPa | 0 mm | - | - | - |
* Rain latest hour (hover to see other rain measurements)
** Current wind speed in m/s (hover to see current wind gust speed)